KC3ROS Weather Reports


Display with metric or nautical units.
time (UTC)temp
F
wind
direction
speed
MPH
gust
MPH
rain 1hr
in
rain 24hr
in
rain mn
in
humidity
%
barometer
mb
20260901162845 84 265 6.0 9.0 0.00 0.00 0.00 77 1017.6
20260901162343 85 284 3.0 7.0 0.00 0.00 0.00 76 1017.6
20260901161838 84 216 1.0 8.0 0.00 0.00 0.00 78 1017.5
20260901161332 84 17 0.0 9.0 0.00 0.00 0.00 79 1017.7
20260901160827 83 280 3.0 9.0 0.00 0.00 0.00 79 1017.5
20260901160324 83 213 1.0 7.0 0.00 0.00 0.00 79 1017.6
20260901155823 82 207 3.0 7.0 0.00 0.00 0.00 80 1017.4
20260901155318 82 223 2.0 9.0 0.00 0.00 0.00 80 1017.7
20260901154815 82 178 1.0 8.0 0.00 0.00 0.00 81 1017.6
20260901154313 82 250 3.0 7.0 0.00 0.00 0.00 80 1017.6
20260901153808 82 261 4.0 8.0 0.00 0.00 0.00 81 1017.5
20260901153308 82 263 8.0 8.0 0.00 0.00 0.00 81 1017.5
20260901152807 82 262 2.0 8.0 0.00 0.00 0.00 81 1017.3
20260901152306 82 256 8.0 10.0 0.00 0.00 0.00 81 1017.5
20260901151802 82 333 0.0 4.0 0.00 0.00 0.00 83 1017.3
20260901151256 81 264 5.0 6.0 0.00 0.00 0.00 83 1017.5
20260901150755 82 274 0.0 5.0 0.00 0.00 0.00 83 1017.3
20260901150254 81 248 3.0 7.0 0.00 0.00 0.00 84 1017.4
20260901145751 80 239 3.0 7.0 0.00 0.00 0.00 86 1017.1
20260901145246 80 242 3.0 8.0 0.00 0.00 0.00 86 1017.1
20260901144741 79 251 2.0 6.0 0.00 0.00 0.00 87 1017.3
20260901144237 79 228 3.0 7.0 0.00 0.00 0.00 87 1017.4
20260901143732 78 260 3.0 10.0 0.00 0.00 0.00 87 1017.3
20260901143228 78 231 2.0 9.0 0.00 0.00 0.00 87 1017.3
20260901142724 78 265 4.0 4.0 0.00 0.00 0.00 89 1017.5
20260901142223 78 239 2.0 8.0 0.00 0.00 0.00 89 1017.3
20260901141718 77 281 2.0 9.0 0.00 0.00 0.00 90 1017.5
20260901141213 77 215 4.0 9.0 0.00 0.00 0.00 90 1017.4
20260901140712 77 255 2.0 8.0 0.00 0.00 0.00 90 1017.3
20260901140211 77 250 3.0 5.0 0.00 0.00 0.00 91 1017.3
20260901135706 77 258 5.0 8.0 0.00 0.00 0.00 91 1017.4
20260901135200 77 264 3.0 5.0 0.00 0.00 0.00 91 1017.5
20260901134656 77 280 3.0 6.0 0.00 0.00 0.00 91 1017.2
20260901134151 76 257 2.0 5.0 0.00 0.00 0.00 91 1017.4
20260901133650 76 255 4.0 7.0 0.00 0.00 0.00 91 1017.3
20260901133149 76 237 2.0 6.0 0.00 0.00 0.00 91 1017.4
20260901132643 76 304 2.0 4.0 0.00 0.00 0.00 92 1017.5
20260901132143 76 245 2.0 6.0 0.00 0.00 0.00 92 1017.4
20260901131643 76 267 1.0 5.0 0.00 0.00 0.00 93 1017.3
20260901131138 75 242 0.0 4.0 0.00 0.00 0.00 93 1017.4
20260901130633 75 272 3.0 5.0 0.00 0.00 0.00 93 1017.4
20260901130132 75 215 2.0 4.0 0.00 0.00 0.00 94 1017.6
20260901125630 75 250 4.0 7.0 0.00 0.00 0.00 94 1017.6
20260901125125 75 217 0.0 3.0 0.00 0.00 0.00 94 1017.6
20260901124620 75 222 0.0 7.0 0.00 0.00 0.00 94 1017.7
20260901124114 75 245 2.0 4.0 0.00 0.00 0.00 94 1017.9
20260901123609 75 239 1.0 5.0 0.00 0.00 0.00 94 1017.8
20260901123108 75 102 0.0 4.0 0.00 0.00 0.00 94 1017.9
20260901122606 75 257 2.0 7.0 0.00 0.00 0.00 94 1017.7
20260901122101 74 245 2.0 6.0 0.00 0.00 0.00 94 1017.8
20260901121555 74 248 3.0 9.0 0.00 0.00 0.00 95 1017.6
20260901121050 74 271 2.0 5.0 0.00 0.00 0.00 95 1017.7
20260901120545 74 238 2.0 3.0 0.00 0.00 0.00 95 1017.6
20260901120041 74 234 2.0 5.0 0.00 0.00 0.00 95 1017.8
20260901115536 74 250 2.0 5.0 0.00 0.00 0.00 95 1017.7
20260901115033 74 245 2.0 3.0 0.00 0.00 0.00 95 1017.6
20260901114529 73 281 1.0 7.0 0.00 0.00 0.00 95 1017.5
20260901114027 74 256 3.0 4.0 0.00 0.00 0.00 96 1017.4
20260901113526 74 249 3.0 4.0 0.00 0.00 0.00 96 1017.4
20260901113022 73 231 3.0 5.0 0.00 0.00 0.00 96 1017.5
20260901112516 73 259 2.0 5.0 0.00 0.00 0.00 96 1017.6
20260901112011 73 218 3.0 5.0 0.00 0.00 0.00 96 1017.4
20260901111510 73 254 2.0 7.0 0.00 0.00 0.00 96 1017.6
20260901111008 73 250 3.0 7.0 0.00 0.00 0.00 96 1017.4
20260901110504 73 235 3.0 5.0 0.00 0.00 0.00 96 1017.3
20260901105954 73 246 3.0 4.0 0.00 0.00 0.00 96 1017.5
20260901105450 73 257 3.0 5.0 0.00 0.00 0.00 95 1017.5
20260901104950 73 250 3.0 5.0 0.00 0.00 0.00 95 1017.2
20260901104446 73 261 2.0 6.0 0.00 0.00 0.00 95 1017.4
20260901103940 74 226 3.0 7.0 0.00 0.00 0.00 95 1017.3
20260901103435 73 238 1.0 8.0 0.00 0.00 0.00 95 1017.3
20260901102930 74 235 3.0 7.0 0.00 0.00 0.00 95 1017.3
20260901102424 73 247 3.0 6.0 0.00 0.00 0.00 95 1017.2
20260901101919 73 228 1.0 6.0 0.00 0.00 0.00 95 1017.3
20260901101415 73 234 3.0 5.0 0.00 0.00 0.00 95 1017.4
20260901100914 73 244 3.0 5.0 0.00 0.00 0.00 95 1017.5
20260901100409 73 249 0.0 5.0 0.00 0.00 0.00 95 1017.3
20260901095902 73 222 3.0 6.0 0.00 0.00 0.00 95 1017.3
20260901095401 73 266 2.0 4.0 0.00 0.00 0.00 95 1017.4
20260901094854 73 254 1.0 3.0 0.00 0.00 0.00 95 1017.3
20260901094349 73 249 3.0 5.0 0.00 0.00 0.00 95 1017.3
20260901093844 73 212 0.0 4.0 0.00 0.00 0.00 95 1017.2
20260901093343 73 271 2.0 4.0 0.00 0.00 0.00 95 1017.3
20260901092839 73 248 2.0 5.0 0.00 0.00 0.00 95 1017.2
20260901092335 73 259 3.0 5.0 0.00 0.00 0.00 95 1017.3
20260901091830 73 266 2.0 4.0 0.00 0.00 0.00 95 1017.6
20260901091324 73 245 2.0 4.0 0.00 0.00 0.00 95 1017.5
20260901090819 73 235 3.0 4.0 0.00 0.00 0.00 95 1017.6
20260901090314 73 265 2.0 4.0 0.00 0.00 0.00 96 1017.3
20260901085810 73 251 3.0 7.0 0.00 0.00 0.00 96 1017.3
20260901085306 73 229 2.0 5.0 0.00 0.00 0.00 96 1017.4
20260901084802 73 262 3.0 6.0 0.00 0.00 0.00 97 1017.5
20260901084258 73 262 3.0 6.0 0.00 0.00 0.00 97 1017.4
20260901083757 73 241 2.0 7.0 0.00 0.00 0.00 97 1017.5
20260901083257 73 248 2.0 5.0 0.00 0.00 0.00 97 1017.4
20260901082755 73 271 3.0 7.0 0.00 0.00 0.00 97 1017.3
20260901082251 73 263 2.0 5.0 0.00 0.00 0.00 97 1017.3
20260901081746 73 244 3.0 4.0 0.00 0.00 0.00 98 1017.3
20260901081246 73 255 2.0 4.0 0.00 0.00 0.00 98 1017.5
20260901080741 73 243 0.0 3.0 0.00 0.00 0.00 98 1017.3
20260901080240 73 241 2.0 3.0 0.00 0.00 0.00 98 1017.2
20260901075735 73 252 1.0 6.0 0.00 0.00 0.00 98 1017.4
20260901075230 73 233 2.0 4.0 0.00 0.00 0.00 98 1017.5
20260901074724 73 215 3.0 6.0 0.00 0.00 0.00 98 1017.6
20260901074219 73 248 1.0 5.0 0.00 0.00 0.00 98 1017.5
20260901073716 73 250 2.0 6.0 0.00 0.00 0.00 98 1017.3
20260901073211 73 253 3.0 3.0 0.00 0.00 0.00 98 1017.4
20260901072706 73 250 1.0 4.0 0.00 0.00 0.00 98 1017.6
20260901072201 73 249 0.0 4.0 0.00 0.00 0.00 98 1017.6
20260901071700 73 240 2.0 3.0 0.00 0.00 0.00 98 1017.4
20260901071155 73 215 1.0 4.0 0.00 0.00 0.00 98 1017.5
20260901070649 73 256 1.0 5.0 0.00 0.00 0.00 98 1017.6
20260901070145 73 257 2.0 4.0 0.00 0.00 0.00 98 1017.5
20260901065643 73 240 3.0 5.0 0.00 0.00 0.00 98 1017.5
20260901065138 73 266 0.0 4.0 0.00 0.00 0.00 98 1017.4
20260901064635 73 217 1.0 4.0 0.00 0.00 0.00 98 1017.7
20260901064132 73 237 2.0 3.0 0.00 0.00 0.00 98 1017.7
20260901063629 73 269 2.0 5.0 0.00 0.00 0.00 98 1017.7
20260901063124 73 256 3.0 3.0 0.00 0.00 0.00 98 1017.9
20260901062619 73 261 3.0 5.0 0.00 0.00 0.00 98 1017.8
20260901062115 73 244 3.0 4.0 0.00 0.00 0.00 97 1017.9
20260901061611 73 233 4.0 4.0 0.00 0.00 0.00 97 1017.9
20260901061106 73 237 1.0 4.0 0.00 0.00 0.00 97 1018.0
20260901060605 73 218 1.0 2.0 0.00 0.00 0.00 97 1017.8
20260901055556 74 241 3.0 5.0 0.00 0.00 0.00 96 1018.3
20260901055053 74 242 3.0 8.0 0.00 0.00 0.00 96 1018.3
20260901054550 74 264 2.0 5.0 0.00 0.00 0.00 96 1018.3
20260901054045 74 246 4.0 5.0 0.00 0.00 0.00 96 1018.3
20260901053536 74 252 2.0 4.0 0.00 0.00 0.00 96 1018.5
20260901053032 74 260 3.0 3.0 0.00 0.00 0.00 96 1018.3
20260901052532 74 242 0.0 3.0 0.00 0.00 0.00 96 1018.4
20260901052032 74 252 1.0 3.0 0.00 0.00 0.00 95 1018.4
20260901051526 74 265 2.0 5.0 0.00 0.00 0.00 95 1018.5
20260901051025 75 247 1.0 3.0 0.00 0.00 0.00 95 1018.2
20260901050521 75 225 2.0 3.0 0.00 0.00 0.00 95 1018.4
20260901050016 75 247 0.0 3.0 0.00 0.00 0.00 95 1018.4
20260901045512 74 250 3.0 5.0 0.00 0.00 0.00 96 1018.0
20260901045012 74 233 1.0 2.0 0.00 0.00 0.00 95 1018.1
20260901044508 75 219 0.0 3.0 0.00 0.00 0.00 95 1018.0
20260901044004 75 256 0.0 2.0 0.00 0.00 0.00 95 1018.1
20260901043459 75 269 0.0 5.0 0.00 0.00 0.00 95 1018.1
20260901042954 75 247 0.0 4.0 0.00 0.00 0.00 95 1018.1
20260901042453 75 232 1.0 2.0 0.00 0.00 0.00 95 1018.0
20260901041949 75 266 0.0 2.0 0.00 0.00 0.00 95 1018.1
20260901041444 75 263 0.0 2.0 0.00 0.00 0.00 94 1018.1
20260901040943 75 241 0.0 4.0 0.00 0.00 0.00 94 1018.0
20260901040438 76 246 0.0 3.0 0.00 0.00 0.00 94 1018.1
20260901035932 76 217 0.0 3.0 0.00 0.00 0.00 94 1018.1
20260901035431 76 231 1.0 5.0 0.00 0.00 0.00 94 1018.0
20260901034929 75 166 0.0 5.0 0.00 0.00 0.00 94 1017.9
20260901034424 75 233 1.0 3.0 0.00 0.00 0.00 95 1018.0
20260901033919 75 238 2.0 3.0 0.00 0.00 0.00 95 1017.9
20260901033418 75 264 1.0 3.0 0.00 0.00 0.00 95 1017.6
20260901032917 76 271 2.0 4.0 0.00 0.00 0.00 95 1017.5
20260901032416 76 259 0.0 5.0 0.00 0.00 0.00 94 1017.6
20260901031912 76 252 1.0 3.0 0.00 0.00 0.00 94 1017.4
20260901031407 76 264 0.0 3.0 0.00 0.00 0.00 94 1017.3
20260901030907 76 243 0.0 3.0 0.00 0.00 0.00 94 1017.4
20260901030402 76 260 3.0 3.0 0.00 0.00 0.00 94 1017.4
20260901025901 76 238 0.0 3.0 0.00 0.00 0.00 94 1017.4
20260901025356 76 243 3.0 5.0 0.00 0.00 0.00 94 1017.6
20260901024851 76 249 1.0 2.0 0.00 0.00 0.00 94 1017.6
20260901024350 76 220 0.0 2.0 0.00 0.00 0.00 94 1017.5
20260901023848 76 238 2.0 2.0 0.00 0.00 0.00 93 1017.9
20260901023343 76 242 2.0 3.0 0.00 0.00 0.00 93 1017.7
20260901022838 76 269 0.0 4.0 0.00 0.00 0.00 93 1017.8
20260901022334 76 227 1.0 3.0 0.00 0.00 0.00 93 1018.1
20260901021824 76 251 3.0 4.0 0.00 0.00 0.00 93 1018.0
20260901021320 76 247 0.0 3.0 0.00 0.00 0.00 93 1018.1
20260901020814 76 256 0.0 4.0 0.00 0.00 0.00 93 1018.2
20260901020309 76 252 0.0 3.0 0.00 0.00 0.00 93 1018.2
20260901015804 76 250 1.0 3.0 0.00 0.00 0.00 93 1018.1
20260901015300 77 218 0.0 0.0 0.00 0.00 0.00 92 1018.3
20260901014759 77 219 0.0 2.0 0.00 0.00 0.00 92 1018.3
20260901014254 77 235 1.0 2.0 0.00 0.00 0.00 92 1018.6
20260901013750 77 252 0.0 2.0 0.00 0.00 0.00 92 1018.2
20260901013246 77 243 0.0 2.0 0.00 0.00 0.00 92 1018.4
20260901012736 77 235 0.0 2.0 0.00 0.00 0.00 92 1018.4
20260901012236 77 230 0.0 2.0 0.00 0.00 0.00 91 1018.3
20260901011732 77 242 0.0 2.0 0.00 0.00 0.00 91 1018.1
20260901011226 77 252 2.0 2.0 0.00 0.00 0.00 91 1018.2
20260901010720 77 259 0.0 2.0 0.00 0.00 0.00 91 1018.3
20260901010215 77 239 0.0 2.0 0.00 0.00 0.00 91 1018.2
20260901005714 77 231 0.0 2.0 0.00 0.00 0.00 91 1018.1
20260901005209 77 242 0.0 2.0 0.00 0.00 0.00 90 1018.2
20260901004708 77 255 0.0 2.0 0.00 0.00 0.00 90 1018.1
20260901004204 77 255 0.0 2.0 0.00 0.00 0.00 90 1017.9
20260901003658 77 225 1.0 2.0 0.00 0.00 0.00 90 1017.9
20260901003157 77 243 1.0 2.0 0.00 0.00 0.00 91 1017.9
20260901002651 77 256 0.0 2.0 0.00 0.00 0.00 90 1018.1
20260901002146 77 268 0.0 1.0 0.00 0.00 0.00 90 1017.8
20260901001642 78 242 0.0 2.0 0.00 0.00 0.00 90 1017.8
20260901001136 78 242 0.0 2.0 0.00 0.00 0.00 89 1017.9
20260901000632 78 217 0.0 2.0 0.00 0.00 0.00 89 1017.8
20260901000121 78 240 0.0 2.0 0.00 0.00 0.00 89 1017.7
20260831235615 78 250 1.0 2.0 0.00 0.00 0.00 90 1017.7
20260831235110 78 237 1.0 2.0 0.00 0.00 0.00 90 1017.8
20260831234604 78 255 2.0 2.0 0.00 0.00 0.00 90 1017.7
20260831234100 78 246 2.0 3.0 0.00 0.00 0.00 89 1017.6
20260831233555 78 231 2.0 2.0 0.00 0.00 0.00 89 1017.7
20260831233051 78 237 1.0 2.0 0.00 0.00 0.00 88 1017.7
20260831232546 78 239 0.0 2.0 0.00 0.00 0.00 89 1017.9
20260831232041 78 245 0.0 2.0 0.00 0.00 0.00 89 1017.8
20260831231538 78 244 2.0 2.0 0.00 0.00 0.00 89 1017.7
20260831231033 78 241 1.0 2.0 0.00 0.00 0.00 88 1017.7
20260831230528 79 249 2.0 2.0 0.00 0.00 0.00 87 1017.9
20260831230023 79 251 1.0 2.0 0.00 0.00 0.00 86 1017.8
20260831225520 80 264 2.0 2.0 0.00 0.00 0.00 85 1017.9
20260831225018 80 269 1.0 2.0 0.00 0.00 0.00 85 1018.0
20260831224513 80 253 1.0 2.0 0.00 0.00 0.00 85 1018.2
20260831224009 80 230 0.0 1.0 0.00 0.00 0.00 84 1018.0
20260831223504 81 252 0.0 2.0 0.00 0.00 0.00 83 1018.0
20260831223000 81 253 0.0 1.0 0.00 0.00 0.00 82 1018.2
20260831222456 81 230 0.0 1.0 0.00 0.00 0.00 81 1018.1
20260831221955 81 252 0.0 1.0 0.00 0.00 0.00 81 1018.1
20260831221451 80 269 0.0 2.0 0.00 0.00 0.00 82 1018.2
20260831220946 80 260 1.0 1.0 0.00 0.00 0.00 83 1018.4
20260831220442 80 269 0.0 2.0 0.00 0.00 0.00 82 1018.1
20260831215937 80 269 0.0 2.0 0.00 0.00 0.00 83 1018.1
20260831215432 80 235 0.0 1.0 0.00 0.00 0.00 83 1018.3
20260831214928 80 242 0.0 2.0 0.00 0.00 0.00 83 1018.1
20260831214426 80 247 1.0 2.0 0.00 0.00 0.00 83 1018.2
20260831213921 80 258 0.0 2.0 0.00 0.00 0.00 82 1017.9
20260831213418 80 246 0.0 2.0 0.00 0.00 0.00 81 1018.2
20260831212918 80 230 0.0 3.0 0.00 0.00 0.00 82 1018.2
20260831212414 81 267 2.0 3.0 0.00 0.00 0.00 81 1018.2
20260831211913 81 241 2.0 3.0 0.00 0.00 0.00 81 1018.2
20260831211408 82 256 1.0 1.0 0.00 0.00 0.00 79 1018.0
20260831210902 82 253 1.0 1.0 0.00 0.00 0.00 78 1018.2
20260831210358 82 264 1.0 3.0 0.00 0.00 0.00 77 1018.1
20260831205853 84 247 3.0 3.0 0.00 0.00 0.00 76 1018.3
20260831205349 82 238 2.0 5.0 0.00 0.00 0.00 76 1018.3
20260831204844 82 262 1.0 3.0 0.00 0.00 0.00 78 1018.5
20260831204343 83 250 2.0 4.0 0.00 0.00 0.00 76 1018.3
20260831203842 85 276 3.0 5.0 0.00 0.00 0.00 72 1018.3
20260831203337 84 255 0.0 3.0 0.00 0.00 0.00 74 1018.4
20260831202835 84 249 2.0 5.0 0.00 0.00 0.00 74 1018.4
20260831202330 84 266 2.0 5.0 0.00 0.00 0.00 72 1018.7
20260831201829 84 216 3.0 5.0 0.00 0.00 0.00 73 1018.6
20260831201328 84 275 3.0 5.0 0.00 0.00 0.00 73 1018.8
20260831200824 84 222 2.0 5.0 0.00 0.00 0.00 74 1018.9
20260831200319 83 172 1.0 4.0 0.00 0.00 0.00 75 1018.6
20260831195815 83 295 2.0 4.0 0.00 0.00 0.00 74 1018.9
20260831195310 83 252 1.0 6.0 0.00 0.00 0.00 76 1018.8
20260831194806 82 259 1.0 3.0 0.00 0.00 0.00 77 1018.8
20260831194301 81 250 2.0 4.0 0.00 0.00 0.00 78 1019.0
20260831193755 79 246 1.0 4.0 0.00 0.00 0.00 82 1018.8
20260831193250 78 253 2.0 3.0 0.00 0.00 0.00 83 1019.0
20260831192745 79 282 0.0 3.0 0.00 0.00 0.00 84 1019.3
20260831192240 79 240 0.0 4.0 0.00 0.00 0.00 84 1019.2
20260831191736 79 262 0.0 3.0 0.00 0.00 0.00 83 1019.2
20260831191233 79 240 0.0 2.0 0.00 0.00 0.00 82 1019.0
20260831190732 79 258 0.0 3.0 0.00 0.00 0.00 82 1019.1
20260831190227 79 242 3.0 4.0 0.00 0.00 0.00 79 1019.1
20260831185722 80 247 3.0 4.0 0.00 0.00 0.00 80 1019.2
20260831185218 80 257 0.0 2.0 0.00 0.00 0.00 80 1019.2
20260831184717 80 254 1.0 4.0 0.00 0.00 0.00 79 1019.2
20260831184212 80 260 1.0 5.0 0.00 0.00 0.00 77 1019.4
20260831183711 81 247 2.0 5.0 0.00 0.00 0.00 79 1019.2
20260831183206 80 261 2.0 3.0 0.00 0.00 0.00 80 1019.4
20260831182705 81 258 3.0 4.0 0.00 0.00 0.00 81 1019.6
20260831182201 80 245 2.0 5.0 0.00 0.00 0.00 81 1019.5
20260831181655 80 269 0.0 3.0 0.00 0.00 0.00 81 1019.1
20260831181150 80 231 0.0 3.0 0.00 0.00 0.00 82 1019.4
20260831180645 80 237 1.0 4.0 0.00 0.00 0.00 80 1019.4
20260831180140 80 254 3.0 3.0 0.00 0.00 0.00 80 1019.4
20260831175634 80 251 2.0 4.0 0.00 0.00 0.00 80 1019.4
20260831175131 80 242 0.0 5.0 0.00 0.00 0.00 80 1019.3
20260831174625 80 284 2.0 7.0 0.00 0.00 0.00 77 1019.5
20260831174120 80 300 1.0 6.0 0.00 0.00 0.00 73 1019.3
20260831173618 80 262 5.0 10.0 0.00 0.00 0.00 74 1019.5
20260831173114 81 222 3.0 5.0 0.00 0.00 0.00 75 1019.3
20260831172609 81 284 1.0 9.0 0.00 0.00 0.00 72 1019.5
20260831172103 82 260 6.0 8.0 0.00 0.00 0.00 71 1019.3
20260831171559 83 229 0.0 5.0 0.00 0.00 0.00 71 1019.4
20260831171056 82 277 2.0 6.0 0.00 0.00 0.00 73 1019.6
20260831170552 82 244 1.0 7.0 0.00 0.00 0.00 76 1019.2
20260831170050 82 224 4.0 8.0 0.00 0.00 0.00 75 1019.2
20260831165549 82 265 3.0 9.0 0.00 0.00 0.00 75 1019.4
20260831165046 81 335 1.0 7.0 0.00 0.00 0.00 78 1019.4
20260831164542 83 244 5.0 7.0 0.00 0.00 0.00 76 1019.6
20260831164037 81 299 0.0 8.0 0.00 0.00 0.00 80 1019.4
20260831163532 81 279 3.0 6.0 0.00 0.00 0.00 79 1019.5